| time (UTC) | temp C | wind direction | speed KPH | gust KPH | rain 1hr cm | rain 24hr cm | rain mn cm | humidity % | barometer mb |
| 20260506094505 | 8 | 35 | 4.8 | 8.0 | 0.00 | 0.00 | 0.00 | 60 | 1016.9 |
| 20260506094005 | 8 | 52 | 3.2 | 8.0 | 0.00 | 0.00 | 0.00 | 63 | 1016.9 |
| 20260506093505 | 8 | 57 | 1.6 | 3.2 | 0.00 | 0.00 | 0.00 | 65 | 1016.9 |
| 20260506093005 | 8 | 77 | 1.6 | 8.0 | 0.00 | 0.00 | 0.00 | 64 | 1017.1 |
| 20260506092505 | 8 | 62 | 6.4 | 16.1 | 0.00 | 0.00 | 0.00 | 62 | 1017.3 |
| 20260506092005 | 8 | 14 | 9.7 | 20.9 | 0.00 | 0.00 | 0.00 | 61 | 1017.2 |
| 20260506091505 | 7 | 1 | 8.0 | 20.9 | 0.00 | 0.00 | 0.00 | 62 | 1016.9 |
| 20260506091005 | 7 | 72 | 8.0 | 12.9 | 0.00 | 0.00 | 0.00 | 65 | 1016.9 |
| 20260506090505 | 7 | 64 | 8.0 | 12.9 | 0.00 | 0.00 | 0.00 | 67 | 1017.3 |
| 20260506090005 | 7 | 60 | 3.2 | 8.0 | 0.00 | 0.00 | 0.00 | 67 | 1016.9 |
| 20260506085506 | 7 | 44 | 4.8 | 8.0 | 0.00 | 0.00 | 0.00 | 67 | 1016.9 |
| 20260506084505 | 7 | 71 | 1.6 | 3.2 | 0.00 | 0.00 | 0.00 | 67 | 1017.3 |
| 20260506084005 | 7 | 22 | 1.6 | 3.2 | 0.00 | 0.00 | 0.00 | 67 | 1016.9 |
| 20260506083505 | 7 | 9 | 1.6 | 8.0 | 0.00 | 0.00 | 0.00 | 70 | 1017.3 |
| 20260506083005 | 7 | 357 | 3.2 | 12.9 | 0.00 | 0.00 | 0.00 | 70 | 1016.9 |
| 20260506082005 | 6 | 332 | 4.8 | 8.0 | 0.00 | 0.00 | 0.00 | 72 | 1016.9 |
| 20260506081505 | 6 | 358 | 3.2 | 12.9 | 0.00 | 0.00 | 0.00 | 72 | 1016.9 |
| 20260506081005 | 6 | 28 | 8.0 | 12.9 | 0.00 | 0.00 | 0.00 | 72 | 1016.9 |
| 20260506080505 | 6 | 310 | 0.0 | 12.9 | 0.00 | 0.00 | 0.00 | 73 | 1016.9 |
| 20260506072505 | 6 | 352 | 3.2 | 8.0 | 0.00 | 0.00 | 0.00 | 74 | 1016.9 |
| 20260506072027 | 6 | 330 | 1.6 | 8.0 | 0.00 | 0.00 | 0.00 | 75 | 1016.9 |
| 20260506071505 | 6 | 17 | 4.8 | 8.0 | 0.00 | 0.00 | 0.00 | 75 | 1016.9 |
| 20260506071005 | 6 | 283 | 4.8 | 8.0 | 0.00 | 0.00 | 0.00 | 75 | 1016.9 |
| 20260506070505 | 6 | 265 | 0.0 | 3.2 | 0.00 | 0.00 | 0.00 | 75 | 1016.9 |
| 20260506062505 | 6 | 242 | 3.2 | 8.0 | 0.00 | 0.00 | 0.00 | 71 | 1016.9 |
| 20260506062007 | 6 | 284 | 3.2 | 8.0 | 0.00 | 0.00 | 0.00 | 71 | 1016.6 |
| 20260506061506 | 6 | 283 | 1.6 | 8.0 | 0.00 | 0.00 | 0.00 | 71 | 1016.6 |
| 20260506061005 | 6 | 266 | 0.0 | 3.2 | 0.00 | 0.00 | 0.00 | 71 | 1016.6 |
| 20260506051006 | 3 | 343 | 1.6 | 3.2 | 0.00 | 0.00 | 0.00 | 78 | 1016.6 |
| 20260506050505 | 3 | 293 | 1.6 | 3.2 | 0.00 | 0.00 | 0.00 | 79 | 1016.3 |
| 20260506045005 | 3 | 275 | 1.6 | 3.2 | 0.00 | 0.00 | 0.00 | 80 | 1016.6 |
| 20260506044505 | 3 | 267 | 0.0 | 0.0 | 0.00 | 0.00 | 0.00 | 80 | 1016.6 |
| 20260506043505 | 3 | 269 | 0.0 | 0.0 | 0.00 | 0.00 | 0.00 | 80 | 1016.6 |
| 20260506042505 | 3 | 282 | 0.0 | 8.0 | 0.00 | 0.00 | 0.00 | 80 | 1016.6 |
| 20260506042006 | 3 | 284 | 3.2 | 8.0 | 0.00 | 0.00 | 0.00 | 80 | 1016.6 |
| 20260506041505 | 3 | 242 | 0.0 | 0.0 | 0.00 | 0.00 | 0.00 | 80 | 1016.6 |
| 20260506041006 | 3 | 252 | 0.0 | 0.0 | 0.00 | 0.00 | 0.00 | 80 | 1016.6 |
| 20260506040505 | 3 | 293 | 0.0 | 0.0 | 0.00 | 0.00 | 0.00 | 80 | 1016.6 |
| 20260506040005 | 3 | 234 | 0.0 | 0.0 | 0.00 | 0.00 | 0.00 | 81 | 1016.3 |
| 20260506035505 | 3 | 298 | 0.0 | 3.2 | 0.00 | 0.00 | 0.00 | 81 | 1016.3 |
| 20260506035006 | 3 | 286 | 1.6 | 3.2 | 0.00 | 0.00 | 0.00 | 81 | 1016.3 |
| 20260506034005 | 3 | 285 | 0.0 | 3.2 | 0.00 | 0.00 | 0.00 | 81 | 1016.5 |
| 20260506033505 | 3 | 278 | 0.0 | 3.2 | 0.00 | 0.00 | 0.00 | 80 | 1016.8 |
| 20260506033006 | 3 | 283 | 1.6 | 3.2 | 0.00 | 0.00 | 0.00 | 80 | 1016.7 |
| 20260506032505 | 3 | 272 | 0.0 | 3.2 | 0.00 | 0.00 | 0.00 | 80 | 1016.6 |
| 20260506032005 | 3 | 261 | 0.0 | 3.2 | 0.00 | 0.00 | 0.00 | 80 | 1016.6 |
| 20260506031006 | 3 | 291 | 1.6 | 3.2 | 0.00 | 0.00 | 0.00 | 79 | 1016.6 |
| 20260506030505 | 3 | 301 | 1.6 | 3.2 | 0.00 | 0.00 | 0.00 | 79 | 1016.6 |
| 20260506030005 | 4 | 296 | 1.6 | 3.2 | 0.00 | 0.00 | 0.00 | 79 | 1016.6 |
| 20260506025505 | 4 | 322 | 1.6 | 3.2 | 0.00 | 0.00 | 0.00 | 79 | 1016.9 |
| 20260506025005 | 4 | 280 | 1.6 | 3.2 | 0.00 | 0.00 | 0.00 | 78 | 1016.6 |
| 20260506024505 | 4 | 303 | 0.0 | 3.2 | 0.00 | 0.00 | 0.00 | 78 | 1016.6 |
| 20260506024005 | 4 | 293 | 0.0 | 3.2 | 0.00 | 0.00 | 0.00 | 78 | 1016.6 |
| 20260506023505 | 4 | 290 | 0.0 | 3.2 | 0.00 | 0.00 | 0.00 | 78 | 1016.6 |
| 20260506022505 | 5 | 229 | 1.6 | 3.2 | 0.00 | 0.00 | 0.00 | 77 | 1016.6 |
| 20260506022005 | 5 | 287 | 1.6 | 3.2 | 0.00 | 0.00 | 0.00 | 77 | 1016.6 |
| 20260506021505 | 5 | 280 | 0.0 | 3.2 | 0.00 | 0.00 | 0.00 | 77 | 1016.3 |
| 20260506021005 | 5 | 296 | 0.0 | 8.0 | 0.00 | 0.00 | 0.00 | 77 | 1016.6 |
| 20260506020506 | 5 | 290 | 4.8 | 8.0 | 0.00 | 0.00 | 0.00 | 76 | 1016.6 |
| 20260506020005 | 5 | 294 | 0.0 | 3.2 | 0.00 | 0.00 | 0.00 | 75 | 1016.6 |
| 20260506015505 | 6 | 287 | 1.6 | 3.2 | 0.00 | 0.00 | 0.00 | 75 | 1016.6 |
| 20260506014505 | 6 | 312 | 8.0 | 12.9 | 0.00 | 0.00 | 0.00 | 75 | 1016.9 |
| 20260506013505 | 6 | 327 | 4.8 | 8.0 | 0.00 | 0.00 | 0.00 | 74 | 1016.6 |
| 20260506013005 | 5 | 63 | 1.6 | 8.0 | 0.00 | 0.00 | 0.00 | 73 | 1016.9 |
| 20260506012505 | 5 | 38 | 4.8 | 8.0 | 0.00 | 0.00 | 0.00 | 71 | 1016.6 |
| 20260506012005 | 5 | 28 | 3.2 | 8.0 | 0.00 | 0.00 | 0.00 | 70 | 1016.6 |
| 20260506011005 | 5 | 57 | 3.2 | 8.0 | 0.00 | 0.00 | 0.00 | 69 | 1016.6 |
| 20260506010506 | 5 | 346 | 4.8 | 8.0 | 0.00 | 0.00 | 0.00 | 70 | 1016.9 |
| 20260506010004 | 5 | 71 | 1.6 | 3.2 | 0.00 | 0.00 | 0.00 | 69 | 1016.6 |
| 20260506005506 | 5 | 13 | 1.6 | 3.2 | 0.00 | 0.00 | 0.00 | 68 | 1016.6 |
| 20260506005005 | 5 | 4 | 0.0 | 8.0 | 0.00 | 0.00 | 0.00 | 67 | 1016.9 |
| 20260506003506 | 5 | 41 | 1.6 | 3.2 | 0.00 | 0.00 | 0.00 | 69 | 1016.6 |
| 20260506003005 | 6 | 57 | 1.6 | 3.2 | 0.00 | 0.00 | 0.00 | 68 | 1016.9 |
| 20260506002506 | 6 | 356 | 1.6 | 3.2 | 0.00 | 0.00 | 0.00 | 68 | 1016.9 |
| 20260506001505 | 6 | 12 | 3.2 | 8.0 | 0.00 | 0.00 | 0.00 | 70 | 1016.9 |
| 20260506001005 | 6 | 20 | 3.2 | 8.0 | 0.00 | 0.00 | 0.00 | 69 | 1016.9 |
| 20260506000507 | 6 | 309 | 4.8 | 12.9 | 0.00 | 0.00 | 0.00 | 69 | 1016.9 |
| 20260506000005 | 6 | 258 | 4.8 | 12.9 | 0.00 | 0.00 | 0.00 | 69 | 1016.9 |
| 20260505235005 | 6 | 333 | 3.2 | 8.0 | 0.00 | 0.00 | 0.00 | 70 | 1016.9 |
| 20260505234006 | 6 | 318 | 3.2 | 12.9 | 0.00 | 0.00 | 0.00 | 69 | 1016.9 |
| 20260505233505 | 6 | 62 | 8.0 | 12.9 | 0.00 | 0.00 | 0.00 | 70 | 1016.9 |
| 20260505233006 | 6 | 60 | 1.6 | 8.0 | 0.00 | 0.00 | 0.00 | 70 | 1017.3 |
| 20260505232506 | 6 | 28 | 4.8 | 8.0 | 0.00 | 0.00 | 0.00 | 70 | 1016.9 |
| 20260505232005 | 6 | 336 | 1.6 | 12.9 | 0.00 | 0.00 | 0.00 | 70 | 1017.3 |
| 20260505231006 | 6 | 95 | 4.8 | 8.0 | 0.00 | 0.00 | 0.00 | 72 | 1017.3 |
| 20260505230005 | 6 | 280 | 0.0 | 3.2 | 0.00 | 0.00 | 0.00 | 72 | 1017.3 |
| 20260505224005 | 6 | 75 | 1.6 | 3.2 | 0.00 | 0.00 | 0.00 | 72 | 1017.3 |
| 20260505223005 | 6 | 76 | 1.6 | 12.9 | 0.00 | 0.00 | 0.00 | 72 | 1017.3 |
| 20260505222505 | 6 | 27 | 8.0 | 12.9 | 0.00 | 0.00 | 0.00 | 71 | 1016.9 |
| 20260505222005 | 6 | 7 | 4.8 | 8.0 | 0.00 | 0.00 | 0.00 | 72 | 1017.3 |
| 20260505221505 | 6 | 332 | 1.6 | 12.9 | 0.00 | 0.00 | 0.00 | 73 | 1016.9 |
| 20260505220005 | 6 | 31 | 4.8 | 8.0 | 0.00 | 0.00 | 0.00 | 72 | 1017.3 |
| 20260505215505 | 6 | 73 | 1.6 | 3.2 | 0.00 | 0.00 | 0.00 | 73 | 1017.3 |
| 20260505215006 | 6 | 354 | 1.6 | 8.0 | 0.00 | 0.00 | 0.00 | 74 | 1016.9 |
| 20260505214505 | 6 | 30 | 1.6 | 8.0 | 0.00 | 0.00 | 0.00 | 75 | 1017.3 |
| 20260505213005 | 6 | 20 | 1.6 | 8.0 | 0.00 | 0.00 | 0.00 | 74 | 1017.3 |
| 20260505212505 | 6 | 0 | 1.6 | 3.2 | 0.00 | 0.00 | 0.00 | 74 | 1017.3 |
| 20260505212005 | 6 | 44 | 4.8 | 12.9 | 0.00 | 0.00 | 0.00 | 74 | 1017.3 |
| 20260505211506 | 6 | 99 | 8.0 | 12.9 | 0.00 | 0.00 | 0.00 | 75 | 1017.3 |
| 20260505205506 | 6 | 42 | 3.2 | 8.0 | 0.00 | 0.00 | 0.00 | 75 | 1017.6 |
| 20260505205005 | 6 | 66 | 3.2 | 8.0 | 0.00 | 0.00 | 0.00 | 74 | 1017.3 |
| 20260505204505 | 6 | 13 | 1.6 | 8.0 | 0.00 | 0.00 | 0.00 | 75 | 1017.3 |
| 20260505203005 | 6 | 347 | 8.0 | 16.1 | 0.00 | 0.00 | 0.00 | 75 | 1017.3 |
| 20260505202006 | 6 | 31 | 4.8 | 12.9 | 0.00 | 0.00 | 0.00 | 76 | 1017.6 |
| 20260505201006 | 7 | 355 | 4.8 | 12.9 | 0.00 | 0.00 | 0.00 | 78 | 1017.3 |
| 20260505200505 | 7 | 355 | 4.8 | 12.9 | 0.00 | 0.00 | 0.00 | 78 | 1017.3 |
| 20260505200006 | 7 | 355 | 4.8 | 12.9 | 0.00 | 0.00 | 0.00 | 78 | 1017.3 |
| 20260505195533 | 7 | 355 | 4.8 | 12.9 | 0.00 | 0.00 | 0.00 | 78 | 1017.3 |
| 20260505194507 | 7 | 85 | 4.8 | 12.9 | 0.00 | 0.00 | 0.00 | 79 | 1016.9 |
| 20260505193507 | 7 | 69 | 4.8 | 12.9 | 0.00 | 0.00 | 0.00 | 80 | 1017.2 |
| 20260505193016 | 7 | 348 | 3.2 | 8.0 | 0.00 | 0.00 | 0.00 | 80 | 1017.0 |
| 20260505192505 | 7 | 340 | 4.8 | 8.0 | 0.00 | 0.00 | 0.00 | 79 | 1016.9 |
| 20260505192019 | 7 | 23 | 4.8 | 12.9 | 0.00 | 0.00 | 0.00 | 79 | 1016.9 |
| 20260505191505 | 7 | 68 | 8.0 | 12.9 | 0.00 | 0.00 | 0.00 | 79 | 1016.9 |
| 20260505190507 | 7 | 80 | 8.0 | 16.1 | 0.00 | 0.00 | 0.00 | 79 | 1016.9 |
| 20260505190005 | 7 | 63 | 11.3 | 16.1 | 0.00 | 0.00 | 0.00 | 80 | 1016.6 |
| 20260505185505 | 7 | 26 | 11.3 | 20.9 | 0.00 | 0.00 | 0.00 | 81 | 1016.9 |
| 20260505185005 | 7 | 82 | 11.3 | 20.9 | 0.00 | 0.00 | 0.00 | 81 | 1016.6 |
| 20260505184505 | 7 | 355 | 11.3 | 20.9 | 0.00 | 0.00 | 0.00 | 80 | 1016.9 |
| 20260505184006 | 7 | 350 | 4.8 | 16.1 | 0.00 | 0.00 | 0.00 | 80 | 1016.6 |
| 20260505183506 | 7 | 357 | 12.9 | 16.1 | 0.00 | 0.00 | 0.00 | 79 | 1016.9 |
| 20260505182505 | 7 | 354 | 11.3 | 16.1 | 0.00 | 0.00 | 0.00 | 75 | 1016.6 |
| 20260505181505 | 7 | 32 | 9.7 | 20.9 | 0.00 | 0.00 | 0.00 | 75 | 1016.6 |
| 20260505181005 | 7 | 301 | 4.8 | 24.1 | 0.00 | 0.00 | 0.00 | 76 | 1016.9 |
| 20260505180505 | 7 | 10 | 12.9 | 24.1 | 0.00 | 0.00 | 0.00 | 75 | 1016.6 |
| 20260505175505 | 7 | 9 | 9.7 | 24.1 | 0.00 | 0.00 | 0.00 | 75 | 1016.9 |
| 20260505174505 | 7 | 12 | 9.7 | 24.1 | 0.00 | 0.00 | 0.00 | 75 | 1016.7 |
| 20260505173506 | 8 | 161 | 8.0 | 16.1 | 0.00 | 0.00 | 0.00 | 76 | 1016.9 |
| 20260505173006 | 8 | 119 | 9.7 | 16.1 | 0.00 | 0.00 | 0.00 | 76 | 1016.9 |
| 20260505172506 | 8 | 350 | 4.8 | 16.1 | 0.00 | 0.00 | 0.00 | 76 | 1016.9 |
| 20260505172005 | 8 | 22 | 3.2 | 16.1 | 0.00 | 0.00 | 0.00 | 75 | 1016.9 |
| 20260505171513 | 8 | 18 | 4.8 | 16.1 | 0.00 | 0.00 | 0.00 | 76 | 1016.6 |
| 20260505170506 | 8 | 12 | 8.0 | 16.1 | 0.00 | 0.00 | 0.00 | 76 | 1016.6 |
| 20260505165505 | 8 | 0 | 12.9 | 20.9 | 0.00 | 0.00 | 0.00 | 75 | 1016.6 |
| 20260505165008 | 8 | 12 | 8.0 | 16.1 | 0.00 | 0.00 | 0.00 | 76 | 1016.6 |
| 20260505164506 | 8 | 76 | 8.0 | 12.9 | 0.00 | 0.00 | 0.00 | 75 | 1016.6 |
| 20260505164005 | 8 | 76 | 8.0 | 16.1 | 0.00 | 0.00 | 0.00 | 75 | 1016.6 |
| 20260505163006 | 8 | 72 | 4.8 | 20.9 | 0.00 | 0.00 | 0.00 | 77 | 1016.6 |
| 20260505162505 | 8 | 3 | 9.7 | 20.9 | 0.00 | 0.00 | 0.00 | 77 | 1016.6 |
| 20260505162008 | 8 | 346 | 12.9 | 20.9 | 0.00 | 0.00 | 0.00 | 76 | 1016.6 |
| 20260505161505 | 8 | 322 | 12.9 | 16.1 | 0.00 | 0.00 | 0.00 | 76 | 1016.3 |
| 20260505161008 | 8 | 17 | 8.0 | 16.1 | 0.00 | 0.00 | 0.00 | 75 | 1016.6 |
| 20260505160506 | 8 | 343 | 9.7 | 20.9 | 0.00 | 0.00 | 0.00 | 76 | 1016.3 |
| 20260505153022 | 8 | 270 | 8.0 | 20.9 | 0.00 | 0.00 | 0.00 | 76 | 1016.6 |
| 20260505152505 | 8 | 21 | 8.0 | 20.9 | 0.00 | 0.00 | 0.00 | 76 | 1016.6 |
| 20260505151505 | 8 | 58 | 8.0 | 16.1 | 0.00 | 0.00 | 0.00 | 76 | 1016.3 |
| 20260505150505 | 8 | 4 | 9.7 | 16.1 | 0.00 | 0.00 | 0.00 | 78 | 1016.6 |
| 20260505140505 | 10 | 17 | 11.3 | 20.9 | 0.00 | 0.00 | 0.00 | 79 | 1016.3 |
| 20260505124505 | 10 | 344 | 11.3 | 24.1 | 0.00 | 0.00 | 0.00 | 74 | 1015.8 |
| 20260505124005 | 10 | 319 | 8.0 | 24.1 | 0.00 | 0.00 | 0.00 | 74 | 1015.9 |
| 20260505123005 | 10 | 314 | 9.7 | 20.9 | 0.00 | 0.00 | 0.00 | 76 | 1015.8 |
| 20260505122506 | 10 | 10 | 11.3 | 20.9 | 0.00 | 0.00 | 0.00 | 76 | 1015.6 |
| 20260505121005 | 11 | 47 | 8.0 | 16.1 | 0.00 | 0.00 | 0.00 | 75 | 1015.6 |
| 20260505120506 | 11 | 53 | 8.0 | 20.9 | 0.00 | 0.00 | 0.00 | 74 | 1015.6 |
| 20260505120006 | 11 | 327 | 14.5 | 27.4 | 0.00 | 0.00 | 0.00 | 74 | 1015.2 |
| 20260505115505 | 11 | 273 | 16.1 | 27.4 | 0.00 | 0.00 | 0.00 | 73 | 1015.6 |
| 20260505115005 | 11 | 353 | 8.0 | 20.9 | 0.00 | 0.00 | 0.00 | 73 | 1015.2 |
| 20260505114505 | 11 | 47 | 9.7 | 20.9 | 0.00 | 0.00 | 0.00 | 73 | 1015.6 |
| 20260505114005 | 11 | 91 | 4.8 | 12.9 | 0.00 | 0.00 | 0.00 | 74 | 1015.2 |
| 20260505113505 | 11 | 344 | 8.0 | 16.1 | 0.00 | 0.00 | 0.00 | 74 | 1015.2 |
| 20260505113006 | 11 | 338 | 8.0 | 20.9 | 0.00 | 0.00 | 0.00 | 74 | 1015.2 |
| 20260505112505 | 10 | 334 | 12.9 | 20.9 | 0.00 | 0.00 | 0.00 | 72 | 1015.2 |
| 20260505112006 | 10 | 3 | 8.0 | 16.1 | 0.00 | 0.00 | 0.00 | 72 | 1015.6 |
| 20260505111516 | 10 | 16 | 11.3 | 16.1 | 0.00 | 0.00 | 0.00 | 71 | 1015.2 |
| 20260505111005 | 10 | 354 | 4.8 | 16.1 | 0.00 | 0.00 | 0.00 | 72 | 1015.2 |
| 20260505110508 | 10 | 6 | 11.3 | 16.1 | 0.00 | 0.00 | 0.00 | 73 | 1015.2 |
| 20260505102005 | 9 | 311 | 4.8 | 12.9 | 0.00 | 0.00 | 0.00 | 87 | 1015.2 |
| 20260505101005 | 9 | 8 | 8.0 | 24.1 | 0.00 | 0.00 | 0.00 | 85 | 1015.2 |
| 20260505100505 | 9 | 15 | 3.2 | 12.9 | 0.00 | 0.00 | 0.00 | 85 | 1015.1 |
| 20260505100007 | 8 | 14 | 6.4 | 16.1 | 0.00 | 0.00 | 0.00 | 85 | 1014.9 |
| 20260505095505 | 8 | 34 | 6.4 | 16.1 | 0.00 | 0.00 | 0.00 | 85 | 1015.0 |
| 20260505095005 | 8 | 23 | 3.2 | 12.9 | 0.00 | 0.00 | 0.00 | 85 | 1015.2 |